Wind_Speed
23 21 20 19 18 16 15 14 13 12 11 10 9 8 7 6 6 5 5 5 5 5 4 4 4 4 5 5 5 5 5 6 6 7 8 8 9 9 9 9 9 10 10
26 24 23 21 20 18 17 16 14 13 12 11 10 9 8 8 7 7 6 6 6 6 5 5 5 5 5 5 6 6 6 7 7 8 9 9 10 10 10 10 11 11 12
28 26 25 24 22 21 19 17 16 15 14 13 12 10 9 9 8 8 7 7 7 6 6 6 6 6 6 6 7 7 7 8 8 9 10 10 11 11 12 12 12 13 13
30 28 27 26 24 22 21 19 18 17 16 15 13 12 11 10 9 9 8 8 8 7 7 6 6 7 7 8 8 8 9 9 10 10 11 12 12 13 13 13 14 14 14
32 30 29 28 26 24 23 21 20 18 17 16 15 14 12 11 11 10 9 9 8 8 8 8 8 8 9 9 9 9 10 11 11 11 12 12 13 13 14 14 15 15 16
33 32 32 30 28 26 25 23 21 20 19 18 17 16 14 13 12 11 10 10 10 9 9 9 9 10 10 10 10 11 11 12 12 12 13 13 14 14 15 15 16 16 16
35 34 33 33 31 29 27 25 23 22 20 19 18 17 16 15 14 13 12 12 11 11 11 10 10 11 12 12 12 12 12 13 13 13 13 14 15 16 16 16 17 17 18
36 36 35 34 33 31 29 27 25 23 22 21 20 18 17 16 15 14 14 13 13 12 12 12 12 12 13 13 13 13 13 14 14 14 15 15 16 17 17 17 18 18 19
37 37 36 35 34 32 30 29 27 25 24 23 22 20 18 18 17 16 15 15 14 14 13 13 13 13 14 14 14 14 14 14 15 15 16 17 17 18 18 19 19 19 20
39 38 37 36 35 34 32 30 29 27 25 24 23 21 20 19 18 18 17 16 15 15 15 15 14 14 15 15 15 15 16 16 16 16 17 18 19 19 19 20 21 21 21
40 40 38 36 36 35 34 32 31 30 27 25 24 23 21 20 19 19 18 17 17 17 17 16 16 17 17 17 17 17 17 18 18 18 19 19 20 20 21 21 22 22 22
41 41 39 38 37 36 36 35 33 31 29 26 26 25 23 22 21 20 19 19 18 18 18 18 18 18 18 18 18 19 19 19 20 20 20 21 21 21 22 22 22 23 23
41 42 40 39 38 38 36 35 34 32 31 28 27 26 25 24 22 22 21 20 20 20 20 20 19 18 19 20 20 21 21 21 22 22 22 23 23 23 23 23 23 23 23
39 42 42 40 39 39 37 35 33 32 31 30 28 27 27 26 24 23 22 22 22 22 22 21 21 20 21 21 22 22 22 23 23 24 24 24 24 24 24 24 24 24 24
38 39 41 42 40 38 37 36 34 34 32 31 30 29 28 28 27 26 25 24 23 23 22 22 22 22 23 23 23 24 24 25 25 25 26 26 25 25 25 26 26 26 26
39 38 39 41 41 38 39 37 35 34 34 32 31 30 30 29 29 28 27 26 25 25 25 25 25 25 25 25 26 26 26 27 27 27 27 27 27 27 27 27 27 27 27
39 41 39 38 40 39 38 37 37 35 34 33 31 31 30 30 30 30 29 28 27 27 27 27 27 26 27 27 28 29 28 28 28 28 28 29 29 29 29 29 29 29 29
39 40 41 38 38 38 37 36 36 36 35 34 32 32 31 31 31 31 30 29 28 28 28 28 28 28 28 29 30 30 30 29 29 29 30 30 30 30 31 31 31 31 31
38 39 39 38 37 37 36 35 33 33 33 34 33 32 32 32 32 31 31 30 30 29 29 29 29 30 30 30 30 31 31 31 31 32 32 32 32 32 32 32 32 32 33
36 38 38 38 36 36 36 35 33 33 33 33 33 32 32 32 32 31 31 30 30 31 31 31 31 31 31 32 32 32 32 33 33 33 33 33 33 33 33 33 33 34 34
35 37 37 36 35 35 35 34 34 33 32 32 32 32 33 33 33 33 32 32 31 31 32 33 33 33 33 33 33 33 33 34 34 34 34 34 34 34 34 35 35 35 35
34 36 38 36 36 36 35 33 33 32 32 32 33 34 34 34 34 34 34 32 32 33 33 34 34 34 35 35 34 34 34 34 35 35 35 35 36 36 36 36 36 37 37
33 33 36 36 34 34 36 35 34 32 30 31 33 34 35 35 34 35 34 33 33 33 34 35 35 36 36 36 36 36 36 36 36 36 36 36 37 37 37 38 38 39 39
31 32 34 35 35 33 34 35 35 31 31 32 33 34 34 35 34 34 34 34 34 35 36 36 37 37 37 37 38 37 37 36 36 36 37 37 38 38 39 39 40 40 41
28 30 32 32 33 32 31 32 32 31 32 32 32 32 33 33 33 33 34 35 35 36 36 36 37 38 38 38 38 38 38 38 37 37 37 38 40 40 41 41 42 42 42
28 28 29 30 31 32 32 31 30 30 31 31 32 32 33 34 34 34 33 34 35 36 37 37 37 39 39 39 39 39 40 40 40 40 40 40 40 41 42 42 43 42 42
Wind_Direction
231 229 229 229 228 226 225 223 221 219 220 219 219 224 228 232 237 243 246 250 255 260 264 265 268 277 284 286 289 294 299 303 308 309 312 313 313 313 314 314 314 313 312
231 230 228 228 229 227 227 225 224 223 223 224 224 228 232 235 238 242 247 250 254 257 262 265 269 278 282 287 291 295 300 302 304 306 309 311 312 312 312 312 312 311 311
230 229 228 228 228 228 228 227 226 225 225 226 228 230 233 236 239 242 247 251 252 255 260 265 272 278 283 288 291 294 298 301 303 304 307 309 311 311 311 310 310 310 310
230 228 227 228 228 228 229 228 227 227 227 228 229 230 232 236 239 242 246 249 251 254 258 263 271 278 282 286 289 292 296 299 301 303 306 309 311 312 311 310 310 310 309
229 227 226 227 227 227 228 228 227 228 228 229 230 231 232 234 237 240 244 246 249 253 255 261 269 277 281 283 288 293 297 299 300 303 305 308 311 311 311 310 310 310 309
227 226 226 226 226 226 227 229 229 229 229 229 230 231 232 233 234 236 241 244 247 250 255 262 269 275 281 283 288 294 297 298 299 301 303 306 309 310 310 310 310 309 308
226 225 225 225 225 225 225 228 230 229 229 231 231 231 232 234 235 236 240 244 247 252 258 264 270 274 279 283 289 293 296 297 298 299 302 304 306 306 307 308 309 309 307
226 225 224 224 224 225 226 226 229 229 230 231 231 231 232 234 236 239 242 244 247 253 259 264 269 273 279 282 286 291 294 295 296 297 299 301 303 304 305 306 308 309 307
224 224 223 223 223 224 225 225 227 227 228 230 231 232 233 234 236 240 243 246 249 254 259 263 267 273 279 282 285 288 291 292 294 296 298 300 301 302 302 304 306 307 307
223 221 222 221 222 224 225 225 225 227 226 228 230 232 233 234 236 240 243 247 251 255 259 263 266 272 278 280 284 286 288 289 291 294 297 298 299 300 301 302 302 303 304
222 219 220 220 221 223 224 224 225 226 227 228 230 232 232 233 236 240 244 248 251 257 260 262 266 271 276 279 282 284 285 287 289 292 295 295 297 298 299 300 300 301 302
220 218 218 219 219 221 223 224 225 225 226 227 230 232 232 234 238 242 246 249 252 256 259 262 267 272 276 278 280 282 283 285 287 290 292 293 294 295 297 299 300 300 300
218 217 216 216 218 218 221 223 225 225 225 228 230 232 233 234 239 243 247 249 253 255 258 263 267 272 274 276 278 280 282 284 287 289 290 292 293 294 295 297 298 298 299
216 215 214 215 216 218 219 222 223 224 224 227 231 234 234 235 238 243 248 251 253 255 258 261 265 270 274 276 277 278 280 284 287 288 289 290 291 292 293 295 296 296 296
213 215 214 215 215 216 219 221 225 226 227 228 231 235 235 237 239 243 248 251 254 256 259 263 266 269 272 274 276 279 280 283 285 286 287 289 289 290 290 292 293 294 294
215 215 212 214 215 216 219 223 226 226 227 229 233 235 236 238 241 245 248 253 256 258 261 263 265 268 271 274 277 279 281 283 284 286 287 288 288 288 289 290 291 292 292
215 214 213 215 213 215 217 221 225 227 229 230 233 236 238 240 243 246 249 253 257 260 263 263 265 269 272 273 276 278 280 282 283 285 285 286 286 287 287 288 289 289 289
215 215 216 218 216 214 216 221 224 228 231 232 234 238 240 242 243 246 250 253 256 260 262 262 264 269 272 275 277 278 279 281 282 283 284 285 285 286 287 287 287 287 288
216 215 217 219 221 218 220 222 225 229 233 235 237 240 242 244 245 247 251 254 258 261 263 264 265 269 272 276 278 278 279 281 282 282 282 284 284 285 286 286 286 286 286
218 217 217 219 221 220 221 226 229 233 235 237 239 242 244 245 246 249 253 257 260 262 263 265 268 270 272 275 277 279 280 280 281 281 282 282 283 284 284 285 284 284 285
219 220 219 217 219 220 221 226 229 233 236 240 242 245 246 248 249 252 255 259 262 264 265 265 268 271 272 274 276 277 278 279 279 280 281 282 283 283 284 284 284 284 285
220 222 222 221 220 222 224 228 230 235 238 244 246 246 249 251 251 254 256 260 264 266 267 268 270 273 273 273 275 277 277 278 279 280 281 282 282 283 283 283 284 284 285
220 221 222 223 223 224 226 229 231 238 242 246 248 248 249 250 252 255 259 262 265 267 268 269 271 272 273 273 275 277 278 277 280 281 281 281 282 282 283 283 284 284 284
218 220 220 221 223 226 228 230 233 241 243 247 250 250 251 252 255 258 262 264 266 268 269 270 271 272 273 273 274 276 277 279 280 281 281 281 282 283 283 284 284 284 285
220 219 220 224 225 226 228 232 237 243 245 247 250 253 255 256 258 261 265 265 267 269 270 272 273 274 275 275 276 276 277 279 280 281 281 281 281 282 283 284 285 285 285
221 221 225 227 228 231 234 237 241 246 246 248 251 255 257 259 262 265 266 268 269 270 272 274 275 276 277 277 277 277 278 278 279 280 281 281 281 282 283 283 284 285 284
Height
5837 5839 5841 5843 5845 5847 5848 5850 5851 5852 5853 5855 5856 5857 5858 5859 5860 5862 5863 5864 5865 5866 5866 5867 5868 5868 5869 5869 5870 5870 5870 5870 5870 5870 5870 5870 5870 5869 5869 5869 5868 5868 5867
5833 5836 5838 5840 5842 5844 5845 5847 5848 5850 5851 5852 5854 5855 5856 5857 5858 5860 5861 5862 5863 5864 5865 5866 5867 5867 5868 5868 5869 5869 5869 5869 5869 5869 5869 5869 5868 5868 5867 5867 5866 5866 5865
5828 5831 5834 5836 5838 5840 5842 5844 5846 5847 5848 5850 5851 5852 5854 5855 5856 5858 5859 5860 5862 5863 5864 5865 5865 5866 5867 5867 5867 5868 5868 5868 5868 5868 5867 5867 5867 5866 5866 5865 5864 5864 5863
5823 5826 5829 5831 5834 5836 5839 5841 5842 5844 5845 5847 5848 5850 5851 5853 5854 5856 5857 5858 5860 5861 5862 5863 5864 5865 5865 5866 5866 5866 5866 5866 5866 5866 5866 5865 5865 5864 5863 5863 5862 5861 5860
5817 5820 5824 5827 5829 5832 5835 5837 5838 5840 5842 5844 5846 5847 5849 5850 5852 5853 5855 5856 5858 5859 5860 5861 5862 5863 5863 5864 5864 5864 5864 5864 5864 5864 5864 5863 5863 5862 5861 5860 5859 5858 5857
5811 5814 5818 5821 5824 5828 5830 5832 5834 5836 5838 5840 5842 5844 5846 5847 5849 5851 5852 5854 5855 5857 5858 5859 5860 5861 5861 5862 5862 5862 5862 5862 5862 5862 5861 5861 5860 5859 5858 5857 5856 5855 5854
5804 5808 5812 5815 5819 5822 5826 5828 5830 5832 5834 5837 5839 5841 5842 5844 5846 5848 5850 5851 5853 5854 5856 5857 5858 5858 5859 5859 5860 5860 5860 5860 5860 5859 5859 5858 5858 5857 5856 5855 5854 5852 5851
5797 5801 5805 5809 5813 5817 5820 5824 5826 5828 5831 5833 5835 5837 5839 5841 5843 5845 5847 5848 5850 5851 5853 5854 5855 5856 5856 5857 5857 5857 5857 5857 5857 5857 5856 5855 5855 5854 5853 5852 5851 5849 5848
5789 5794 5799 5803 5807 5811 5815 5818 5821 5824 5826 5829 5831 5833 5835 5837 5840 5842 5843 5845 5847 5848 5850 5851 5852 5853 5853 5854 5854 5854 5854 5854 5854 5854 5853 5852 5852 5851 5850 5848 5847 5846 5845
5781 5787 5792 5796 5801 5805 5809 5813 5816 5819 5821 5824 5826 5829 5831 5833 5836 5838 5840 5842 5843 5845 5846 5848 5849 5850 5850 5851 5851 5851 5851 5851 5851 5850 5850 5849 5848 5847 5846 5845 5844 5843 5841
5774 5779 5785 5790 5795 5799 5803 5807 5810 5813 5816 5819 5822 5825 5827 5830 5832 5834 5836 5838 5840 5841 5843 5844 5845 5846 5847 5847 5848 5848 5848 5847 5847 5847 5846 5845 5845 5844 5843 5842 5840 5839 5838
5766 5772 5778 5784 5788 5793 5797 5801 5804 5808 5811 5814 5817 5821 5823 5826 5828 5830 5832 5834 5836 5837 5839 5840 5841 5842 5843 5843 5844 5844 5844 5844 5843 5843 5842 5842 5841 5840 5839 5838 5837 5835 5834
5758 5764 5770 5776 5781 5786 5790 5794 5798 5802 5806 5809 5813 5816 5819 5821 5824 5826 5828 5830 5831 5833 5835 5836 5837 5838 5839 5839 5840 5840 5840 5840 5839 5839 5838 5837 5836 5836 5835 5834 5832 5831 5830
5750 5757 5762 5768 5774 5779 5785 5789 5792 5797 5800 5804 5808 5811 5814 5817 5819 5821 5823 5825 5827 5829 5830 5831 5833 5833 5834 5835 5835 5835 5835 5835 5835 5834 5833 5832 5832 5831 5830 5829 5828 5827 5825
5745 5750 5756 5762 5768 5772 5779 5783 5787 5791 5795 5799 5802 5806 5809 5812 5815 5817 5819 5820 5822 5824 5825 5827 5828 5829 5829 5830 5830 5830 5830 5830 5830 5829 5828 5828 5827 5826 5825 5824 5823 5822 5820
5739 5744 5750 5756 5762 5767 5773 5778 5782 5785 5789 5794 5797 5801 5804 5807 5810 5812 5814 5816 5817 5819 5821 5822 5823 5823 5824 5825 5825 5825 5825 5825 5824 5824 5823 5822 5821 5820 5819 5818 5817 5816 5815
5733 5739 5744 5750 5756 5762 5767 5773 5777 5781 5785 5789 5792 5795 5799 5802 5805 5807 5809 5811 5813 5814 5815 5816 5817 5818 5819 5819 5819 5819 5819 5819 5818 5818 5817 5816 5816 5815 5814 5813 5812 5810 5809
5728 5734 5739 5745 5750 5755 5761 5766 5771 5776 5780 5784 5787 5790 5794 5796 5799 5801 5804 5806 5807 5809 5810 5811 5812 5812 5813 5813 5814 5813 5813 5812 5812 5811 5811 5810 5809 5808 5807 5806 5805 5804 5803
5724 5729 5734 5739 5745 5750 5756 5761 5766 5771 5775 5779 5782 5785 5788 5791 5793 5796 5798 5800 5802 5803 5804 5805 5806 5806 5807 5807 5807 5807 5806 5806 5806 5805 5804 5803 5802 5801 5800 5799 5798 5797 5796
5720 5725 5730 5735 5741 5747 5752 5757 5761 5766 5770 5774 5777 5780 5782 5785 5788 5790 5792 5794 5795 5797 5798 5799 5799 5799 5799 5800 5799 5799 5799 5799 5798 5798 5797 5796 5795 5794 5793 5792 5791 5789 5788
5716 5722 5727 5732 5737 5742 5748 5752 5757 5762 5765 5769 5772 5774 5777 5779 5782 5784 5786 5787 5789 5790 5791 5792 5792 5793 5793 5793 5793 5792 5791 5791 5790 5789 5789 5788 5787 5786 5785 5784 5783 5781 5780
5713 5718 5723 5729 5734 5739 5743 5748 5752 5756 5760 5763 5766 5769 5771 5773 5776 5777 5779 5781 5782 5783 5784 5785 5785 5785 5785 5785 5785 5784 5784 5784 5782 5781 5781 5780 5779 5778 5777 5776 5774 5773 5772
5710 5715 5720 5725 5730 5734 5739 5743 5747 5751 5754 5757 5760 5763 5765 5767 5769 5771 5772 5774 5775 5776 5777 5777 5778 5778 5777 5777 5777 5777 5776 5775 5774 5774 5772 5771 5770 5769 5768 5767 5766 5765 5763
5707 5711 5716 5721 5725 5730 5734 5738 5742 5746 5749 5752 5754 5756 5758 5761 5762 5764 5765 5767 5768 5768 5769 5769 5769 5769 5769 5769 5768 5768 5767 5766 5766 5765 5764 5762 5761 5760 5759 5758 5756 5755 5753
5703 5708 5713 5717 5721 5725 5729 5733 5737 5741 5744 5746 5748 5750 5752 5754 5755 5757 5758 5759 5760 5760 5761 5761 5761 5761 5760 5760 5759 5758 5758 5757 5756 5755 5755 5753 5752 5750 5749 5748 5746 5745 5743
5701 5705 5709 5713 5717 5721 5725 5729 5732 5735 5738 5740 5742 5744 5746 5747 5748 5749 5750 5751 5752 5752 5752 5752 5752 5751 5751 5750 5749 5749 5748 5747 5746 5745 5744 5743 5742 5740 5739 5737 5736 5735 5733